Погода в Сен-Дени

Реюньон     20°53′33″S   55°28′15″E
темп.,
°C
ветер,
м/с
пор.,
м/с
влажн.,
%
обл.,
%
осадки,
мм/ч
давл.,
гПа
погр.,
м
13 августа, сб
сб1301:00+13юв458731 0.1 1025314
04:00+13юв458833 0.2 1024259
07:00+12юв458856 0.1 1025254
10:00+15в458174 0.4 1025660
13:00+16вюв446843 0.1 1024873
16:00+16вюв447464 0.2 1023748
19:00+14вюв448162 0.1 1024516
22:00+12юв458114 0.1 1025201
14 августа, вс
вс1401:00+12юв458421 0.1 1025255
04:00+12юв458731 0.1 1024232
07:00+12юв458741 0.1 1025193
10:00+16вюв456928 0.1 1026830
13:00+18в346425 0.1 1023958
16:00+17вюв456928 0.1 1022799
19:00+15вюв458533 0.2 1024526
22:00+14вюв458438 0.3 1025504
15 августа, пн
пн1501:00+13вюв458519 0.1 1025382
04:00+12юв458728 0.1 1023278
07:00+12юв45834 0.0 1024168
10:00+17всв346319 0.0 1024671
13:00+17в348380 0.3 1022728
16:00+16в337529 0.4 1021717
19:00+15вюв238124 0.1 1023327
22:00+13юв348012 0.1 1024168
16 августа, вт
вт1601:00+13юв337716 0.1 1023141
04:00+12юв22694 0.1 102253
07:00+12ююв22789 0.0 102357
10:00+17всв236620 0.1 1023769
13:00+19св326273 0.1 10211098
16:00+17св228070 0.3 1020599
19:00+16всв118347 0.1 1022271
22:00+15вюв228327 0.1 1023142
17 августа, ср
ср1701:00+15ююв017831 0.1 102254
04:00+15ююв117524 0.1 102134
07:00+14ююв22730 0.0 102236
10:00+18св22540 0.0 1023828
13:00+20св335531 0.0 10211178
16:00+17св227288 0.0 1020752
19:00+16в128066 0.1 1021320
22:00+15вюв227937 0.2 1022179